• In Czech Republic
  • List of Countries
  • For 7 days
  • Water Temperature
  • Satellite Maps
  • Weather Map
  • Weather Widgets
  • user-avatar
    Login

    Hourly Weather Pokrovskiy

    Today, 20 April, Friday

    Time Temperature Precipitation Wind Pressure Humidity
    00:00 +5°C° 0.3 mm 6 mps 740 mmHg 92%
    01:00 +5°C° 0.2 mm 6 mps 740 mmHg 91%
    02:00 +5°C° 0.2 mm 7 mps 741 mmHg 90%
    03:00 +5°C° 0 mm 6 mps 741 mmHg 90%
    04:00 +5°C° 0 mm 6 mps 741 mmHg 90%
    05:00 +5°C° 0 mm 7 mps 742 mmHg 90%
    06:00 +4°C° 0 mm 7 mps 742 mmHg 90%
    07:00 +4°C° 0 mm 8 mps 743 mmHg 89%
    08:00 +5°C° 0 mm 8 mps 743 mmHg 87%
    09:00 +5°C° 0 mm 8 mps 744 mmHg 84%
    10:00 +5°C° 0 mm 8 mps 744 mmHg 82%
    11:00 +5°C° 0 mm 8 mps 745 mmHg 80%
    12:00 +5°C° 0 mm 8 mps 746 mmHg 78%
    13:00 +6°C° 0 mm 8 mps 746 mmHg 76%
    14:00 +6°C° 0 mm 7 mps 746 mmHg 73%
    15:00 +6°C° 0 mm 7 mps 747 mmHg 71%
    16:00 +7°C° 0 mm 6 mps 747 mmHg 71%
    17:00 +7°C° 0 mm 6 mps 747 mmHg 72%
    18:00 +6°C° 0 mm 5 mps 747 mmHg 72%
    19:00 +6°C° 0 mm 4 mps 747 mmHg 75%
    20:00 +5°C° 0 mm 3 mps 748 mmHg 78%
    21:00 +5°C° 0 mm 2 mps 748 mmHg 81%
    22:00 +5°C° 0 mm 2 mps 748 mmHg 82%
    23:00 +5°C° 0 mm 1 mps 747 mmHg 84%

    Tomorrow, 21 April, Saturday

    Time Temperature Precipitation Wind Pressure Humidity
    00:00 +5°C° 0 mm 1 mps 747 mmHg 86%
    01:00 +5°C° 0 mm 1 mps 747 mmHg 87%
    02:00 +3°C° 0 mm 2 mps 747 mmHg 88%
    03:00 +3°C° 0 mm 2 mps 746 mmHg 88%
    04:00 +2°C° 0 mm 3 mps 746 mmHg 88%
    05:00 +3°C° 0 mm 4 mps 745 mmHg 87%
    06:00 +3°C° 0 mm 4 mps 744 mmHg 87%
    07:00 +3°C° 0.1 mm 5 mps 744 mmHg 85%
    08:00 +5°C° 0.1 mm 6 mps 743 mmHg 82%
    09:00 +6°C° 0.1 mm 7 mps 742 mmHg 80%
    10:00 +9°C° 0.1 mm 7 mps 741 mmHg 75%
    11:00 +10°C° 0.1 mm 8 mps 740 mmHg 70%
    12:00 +12°C° 0.1 mm 8 mps 739 mmHg 65%
    13:00 +15°C° 0 mm 9 mps 738 mmHg 61%
    14:00 +16°C° 0 mm 9 mps 737 mmHg 58%
    15:00 +17°C° 0 mm 9 mps 736 mmHg 54%
    16:00 +17°C° 0.1 mm 8 mps 735 mmHg 56%
    17:00 +17°C° 0.1 mm 8 mps 733 mmHg 58%
    18:00 +16°C° 0.1 mm 7 mps 732 mmHg 60%
    19:00 +15°C° 0.9 mm 8 mps 732 mmHg 65%
    20:00 +13°C° 0.9 mm 8 mps 731 mmHg 71%
    21:00 +12°C° 0.9 mm 8 mps 731 mmHg 76%
    22:00 +10°C° 0.2 mm 8 mps 731 mmHg 73%
    23:00 +9°C° 0.2 mm 8 mps 731 mmHg 71%

    Day after tomorrow, 22 April, Sunday

    Time Temperature Precipitation Wind Pressure Humidity
    00:00 +6°C° 0.2 mm 8 mps 731 mmHg 68%
    01:00 +5°C° 0 mm 8 mps 731 mmHg 69%
    02:00 +5°C° 0 mm 8 mps 731 mmHg 70%
    03:00 +4°C° 0 mm 8 mps 731 mmHg 72%
    04:00 +4°C° 0 mm 8 mps 731 mmHg 71%
    05:00 +3°C° 0 mm 9 mps 731 mmHg 70%
    06:00 +3°C° 0 mm 9 mps 731 mmHg 70%
    07:00 +3°C° 0 mm 10 mps 731 mmHg 68%
    08:00 +3°C° 0 mm 10 mps 732 mmHg 66%
    09:00 +3°C° 0 mm 11 mps 732 mmHg 65%
    10:00 +3°C° 0.1 mm 10 mps 732 mmHg 64%
    11:00 +3°C° 0.1 mm 10 mps 733 mmHg 63%
    12:00 +3°C° 0.1 mm 10 mps 733 mmHg 62%
    13:00 +3°C° 0.1 mm 10 mps 734 mmHg 62%
    14:00 +3°C° 0.1 mm 9 mps 734 mmHg 61%
    15:00 +3°C° 0.1 mm 9 mps 735 mmHg 60%
    16:00 +3°C° 0 mm 9 mps 735 mmHg 60%
    17:00 +3°C° 0 mm 9 mps 736 mmHg 60%
    18:00 +2°C° 0 mm 8 mps 736 mmHg 60%
    19:00 +2°C° 0 mm 8 mps 737 mmHg 63%
    20:00 +2°C° 0 mm 7 mps 738 mmHg 65%
    21:00 +1°C° 0 mm 6 mps 738 mmHg 67%
    22:00 -1°C° 0 mm 6 mps 739 mmHg 69%
    23:00 -2°C° 0 mm 6 mps 739 mmHg 71%

    23 April, Monday

    Time Temperature Precipitation Wind Pressure Humidity
    00:00 -2°C° 0 mm 6 mps 739 mmHg 73%
    01:00 -3°C° 0 mm 6 mps 739 mmHg 74%
    02:00 -3°C° 0 mm 6 mps 740 mmHg 75%
    03:00 -3°C° 0 mm 6 mps 740 mmHg 76%
    04:00 -3°C° 0 mm 6 mps 740 mmHg 75%
    05:00 -3°C° 0 mm 6 mps 741 mmHg 74%
    06:00 -3°C° 0 mm 7 mps 741 mmHg 72%
    07:00 -2°C° 0 mm 7 mps 741 mmHg 69%
    08:00 -2°C° 0 mm 7 mps 742 mmHg 65%
    09:00 -2°C° 0 mm 7 mps 742 mmHg 61%
    10:00 -1°C° 0 mm 7 mps 742 mmHg 58%
    11:00 0°C° 0 mm 7 mps 743 mmHg 55%
    12:00 +2°C° 0 mm 7 mps 743 mmHg 52%
    13:00 +2°C° 0 mm 7 mps 743 mmHg 50%
    14:00 +3°C° 0 mm 7 mps 744 mmHg 48%
    15:00 +4°C° 0 mm 7 mps 744 mmHg 45%
    16:00 +3°C° 0 mm 6 mps 744 mmHg 46%
    17:00 +3°C° 0 mm 6 mps 744 mmHg 47%
    18:00 +3°C° 0 mm 5 mps 745 mmHg 47%
    19:00 +3°C° 0 mm 4 mps 745 mmHg 53%
    20:00 +2°C° 0 mm 3 mps 746 mmHg 58%
    21:00 +1°C° 0 mm 3 mps 746 mmHg 63%
    22:00 +1°C° 0 mm 2 mps 746 mmHg 66%
    23:00 +1°C° 0 mm 2 mps 747 mmHg 68%

    24 April, Tuesday

    Time Temperature Precipitation Wind Pressure Humidity
    00:00 -1°C° 0 mm 2 mps 747 mmHg 71%
    01:00 -1°C° 0 mm 2 mps 747 mmHg 72%
    02:00 -1°C° 0 mm 2 mps 747 mmHg 72%
    03:00 0°C° 0 mm 1 mps 747 mmHg 73%
    04:00 +1°C° 0 mm 1 mps 748 mmHg 72%
    05:00 +1°C° 0 mm 1 mps 748 mmHg 71%
    06:00 +1°C° 0 mm 1 mps 748 mmHg 70%
    07:00 +2°C° 0 mm 1 mps 748 mmHg 64%
    08:00 +3°C° 0 mm 2 mps 748 mmHg 57%
    09:00 +4°C° 0 mm 2 mps 749 mmHg 51%
    10:00 +5°C° 0 mm 2 mps 748 mmHg 48%
    11:00 +6°C° 0 mm 2 mps 748 mmHg 45%
    12:00 +7°C° 0 mm 2 mps 748 mmHg 42%
    13:00 +8°C° 0 mm 2 mps 748 mmHg 41%
    14:00 +8°C° 0 mm 2 mps 748 mmHg 39%
    15:00 +9°C° 0 mm 2 mps 748 mmHg 38%
    16:00 +10°C° 0 mm 1 mps 747 mmHg 39%
    17:00 +10°C° 0 mm 1 mps 747 mmHg 39%
    18:00 +10°C° 0 mm 1 mps 747 mmHg 40%
    19:00 +9°C° 0 mm 1 mps 747 mmHg 44%
    20:00 +6°C° 0 mm 2 mps 747 mmHg 48%
    21:00 +5°C° 0 mm 2 mps 747 mmHg 52%
    22:00 +5°C° 0 mm 2 mps 747 mmHg 54%
    23:00 +4°C° 0 mm 3 mps 746 mmHg 56%

    25 April, Wednesday

    Time Temperature Precipitation Wind Pressure Humidity
    00:00 +3°C° 0 mm 3 mps 746 mmHg 59%
    01:00 +3°C° 0 mm 3 mps 746 mmHg 61%
    02:00 +3°C° 0 mm 3 mps 746 mmHg 63%
    03:00 +2°C° 0 mm 3 mps 746 mmHg 66%
    04:00 +2°C° 0.1 mm 3 mps 746 mmHg 68%
    05:00 +2°C° 0.1 mm 3 mps 746 mmHg 71%
    06:00 +2°C° 0.1 mm 3 mps 746 mmHg 73%
    07:00 +3°C° 0.1 mm 4 mps 745 mmHg 71%
    08:00 +4°C° 0.1 mm 4 mps 745 mmHg 69%
    09:00 +5°C° 0.1 mm 5 mps 745 mmHg 68%
    10:00 +7°C° 0 mm 5 mps 745 mmHg 66%
    11:00 +8°C° 0 mm 6 mps 745 mmHg 64%
    12:00 +9°C° 0 mm 6 mps 745 mmHg 62%
    13:00 +9°C° 0.3 mm 6 mps 745 mmHg 66%
    14:00 +9°C° 0.3 mm 6 mps 744 mmHg 70%
    15:00 +9°C° 0.3 mm 6 mps 744 mmHg 74%
    16:00 +9°C° 0 mm 5 mps 744 mmHg 76%
    17:00 +9°C° 0 mm 5 mps 744 mmHg 77%
    18:00 +9°C° 0 mm 5 mps 743 mmHg 78%
    19:00 +9°C° 0 mm 5 mps 743 mmHg 82%
    20:00 +8°C° 0 mm 5 mps 743 mmHg 85%
    21:00 +8°C° 0 mm 5 mps 743 mmHg 88%
    22:00 +8°C° 0 mm 5 mps 742 mmHg 88%
    23:00 +8°C° 0 mm 6 mps 742 mmHg 88%
    Show more